Location: ??????????
(48.5701°N, 37.7703°E)
Time: 03:36:25
(UTC+00:00)

H-2A R/B - Visible Passes

Search period start: 23 October 2020 00:00
Search period end: 02 November 2020 00:00
Orbit: 577 x 655 km, 98.5° (Epoch: 22 October)

Date Brightness Start Highest point End Pass type
(mag) Time Alt. Az. Time Alt. Az. Time Alt. Az.
23 Oct 3.9 15:23:42 10° N 15:27:28 32° WNW 15:31:09 10° SW visible
24 Oct5.500:55:13N00:55:13N00:42:58SEvisible
24 Oct 4.4 15:40:06 10° N 15:43:28 23° WNW 15:46:45 10° WSW visible
25 Oct 4.8 15:56:39 10° NNW 15:59:25 17° WNW 16:02:09 10° W visible
26 Oct 5.0 16:13:30 10° NNW 16:15:21 13° NW 16:17:12 10° W visible
27 Oct 2.4 14:51:57 10° N 14:56:07 67° WNW 15:00:11 10° SSW visible
28 Oct 3.1 15:08:11 10° N 15:12:11 46° WNW 15:16:07 10° SW visible
29 Oct 3.8 15:24:29 10° N 15:28:14 32° WNW 15:31:53 10° SW visible
30 Oct 4.3 15:40:53 10° N 15:44:13 24° WNW 15:47:30 10° WSW visible
31 Oct 4.8 15:57:26 10° NNW 16:00:11 17° WNW 16:02:55 10° WSW visible
01 Nov 1.9 14:36:35 10° NNE 14:40:44 82° ESE 14:44:50 10° SSW visible
01 Nov 5.0 16:14:14 10° NNW 16:16:06 13° WNW 16:17:57 10° W visible
